When you browse on this site, cookies collect data to enhance your experience and personalize the content and advertising you see.
Visit our Privacy Policy to learn more. By continuing to use the site, you agree to this use of cookies and data.
  • In Germany
  • List of Countries
  • For 7 days
  • Water Temperature
  • Satellite Maps
  • Weather Map
  • Weather Widgets
  • user-avatar
    Login

    Hourly Weather Viedma

    Today, 21 July, Sunday

    Time Temperature Precipitation Wind Pressure Humidity
    00:00 +11°C° 0 mm 7 mps 743 mmHg 86%
    01:00 +11°C° 0 mm 6 mps 743 mmHg 87%
    02:00 +10°C° 0 mm 6 mps 743 mmHg 87%
    03:00 +10°C° 0 mm 6 mps 743 mmHg 86%
    04:00 +10°C° 0 mm 6 mps 743 mmHg 86%
    05:00 +9°C° 0 mm 6 mps 744 mmHg 85%
    06:00 +9°C° 0 mm 6 mps 744 mmHg 76%
    07:00 +8°C° 0 mm 6 mps 745 mmHg 68%
    08:00 +8°C° 0 mm 6 mps 745 mmHg 59%
    09:00 +9°C° 0 mm 7 mps 746 mmHg 51%
    10:00 +10°C° 0 mm 8 mps 746 mmHg 42%
    11:00 +12°C° 0 mm 9 mps 747 mmHg 34%
    12:00 +12°C° 0 mm 9 mps 747 mmHg 32%
    13:00 +12°C° 0 mm 9 mps 747 mmHg 30%
    14:00 +13°C° 0 mm 9 mps 747 mmHg 28%
    15:00 +12°C° 0 mm 8 mps 747 mmHg 30%
    16:00 +11°C° 0 mm 6 mps 748 mmHg 32%
    17:00 +11°C° 0 mm 4 mps 749 mmHg 34%
    18:00 +10°C° 0 mm 4 mps 750 mmHg 39%
    19:00 +8°C° 0 mm 4 mps 750 mmHg 45%
    20:00 +8°C° 0 mm 3 mps 751 mmHg 50%
    21:00 +7°C° 0 mm 3 mps 752 mmHg 55%
    22:00 +6°C° 0 mm 4 mps 753 mmHg 60%
    23:00 +6°C° 0 mm 4 mps 753 mmHg 65%

    Tomorrow, 22 July, Monday

    Time Temperature Precipitation Wind Pressure Humidity
    00:00 +6°C° 0 mm 4 mps 754 mmHg 64%
    01:00 +5°C° 0 mm 4 mps 754 mmHg 63%
    02:00 +5°C° 0 mm 4 mps 755 mmHg 62%
    03:00 +5°C° 0 mm 3 mps 756 mmHg 64%
    04:00 +4°C° 0 mm 3 mps 756 mmHg 66%
    05:00 +4°C° 0 mm 3 mps 757 mmHg 69%
    06:00 +4°C° 0 mm 3 mps 758 mmHg 68%
    07:00 +4°C° 0 mm 3 mps 758 mmHg 67%
    08:00 +4°C° 0 mm 3 mps 759 mmHg 67%
    09:00 +6°C° 0 mm 4 mps 759 mmHg 56%
    10:00 +7°C° 0 mm 4 mps 760 mmHg 46%
    11:00 +9°C° 0 mm 5 mps 760 mmHg 36%
    12:00 +10°C° 0 mm 5 mps 760 mmHg 35%
    13:00 +10°C° 0 mm 5 mps 760 mmHg 34%
    14:00 +10°C° 0 mm 6 mps 760 mmHg 32%
    15:00 +9°C° 0 mm 5 mps 760 mmHg 34%
    16:00 +8°C° 0 mm 4 mps 760 mmHg 37%
    17:00 +7°C° 0 mm 4 mps 761 mmHg 39%
    18:00 +7°C° 0 mm 3 mps 761 mmHg 39%
    19:00 +5°C° 0 mm 3 mps 761 mmHg 40%
    20:00 +4°C° 0 mm 3 mps 761 mmHg 40%
    21:00 +4°C° 0 mm 3 mps 762 mmHg 40%
    22:00 +4°C° 0 mm 3 mps 762 mmHg 41%
    23:00 +3°C° 0 mm 3 mps 763 mmHg 41%

    Day after tomorrow, 23 July, Tuesday

    Time Temperature Precipitation Wind Pressure Humidity
    00:00 +3°C° 0 mm 4 mps 762 mmHg 44%
    01:00 +3°C° 0 mm 4 mps 762 mmHg 47%
    02:00 +3°C° 0 mm 4 mps 762 mmHg 51%
    03:00 +3°C° 0 mm 4 mps 762 mmHg 52%
    04:00 +1°C° 0 mm 4 mps 762 mmHg 53%
    05:00 +1°C° 0 mm 4 mps 762 mmHg 53%
    06:00 +1°C° 0 mm 4 mps 762 mmHg 55%
    07:00 +1°C° 0 mm 4 mps 763 mmHg 56%
    08:00 +1°C° 0 mm 4 mps 763 mmHg 58%
    09:00 +4°C° 0 mm 4 mps 763 mmHg 53%
    10:00 +6°C° 0 mm 5 mps 764 mmHg 48%
    11:00 +9°C° 0 mm 5 mps 764 mmHg 43%
    12:00 +9°C° 0 mm 6 mps 764 mmHg 41%
    13:00 +10°C° 0 mm 6 mps 763 mmHg 40%
    14:00 +10°C° 0 mm 7 mps 763 mmHg 39%
    15:00 +9°C° 0 mm 6 mps 764 mmHg 43%
    16:00 +8°C° 0 mm 5 mps 764 mmHg 47%
    17:00 +7°C° 0 mm 4 mps 764 mmHg 51%
    18:00 +6°C° 0 mm 4 mps 765 mmHg 56%
    19:00 +6°C° 0 mm 4 mps 766 mmHg 61%
    20:00 +5°C° 0 mm 3 mps 766 mmHg 66%
    21:00 +5°C° 0 mm 3 mps 767 mmHg 68%
    22:00 +4°C° 0 mm 3 mps 767 mmHg 71%
    23:00 +4°C° 0 mm 3 mps 768 mmHg 74%

    24 July, Wednesday

    Time Temperature Precipitation Wind Pressure Humidity
    00:00 +4°C° 0 mm 3 mps 768 mmHg 74%
    01:00 +3°C° 0 mm 3 mps 768 mmHg 75%
    02:00 +4°C° 0 mm 2 mps 769 mmHg 75%
    03:00 +3°C° 0 mm 2 mps 769 mmHg 74%
    04:00 +3°C° 0 mm 2 mps 769 mmHg 74%
    05:00 +3°C° 0 mm 1 mps 770 mmHg 73%
    06:00 +3°C° 0 mm 1 mps 770 mmHg 73%
    07:00 +3°C° 0 mm 1 mps 770 mmHg 72%
    08:00 +2°C° 0 mm 0 mps 770 mmHg 72%
    09:00 +5°C° 0 mm 1 mps 771 mmHg 63%
    10:00 +7°C° 0 mm 1 mps 771 mmHg 54%
    11:00 +8°C° 0 mm 2 mps 771 mmHg 45%
    12:00 +9°C° 0 mm 2 mps 771 mmHg 42%
    13:00 +9°C° 0 mm 2 mps 771 mmHg 39%
    14:00 +10°C° 0 mm 2 mps 770 mmHg 37%
    15:00 +9°C° 0 mm 2 mps 770 mmHg 39%
    16:00 +8°C° 0 mm 2 mps 770 mmHg 42%
    17:00 +7°C° 0 mm 2 mps 770 mmHg 44%
    18:00 +5°C° 0 mm 3 mps 770 mmHg 49%
    19:00 +4°C° 0 mm 4 mps 770 mmHg 53%
    20:00 +3°C° 0 mm 4 mps 770 mmHg 57%
    21:00 +2°C° 0 mm 5 mps 770 mmHg 59%
    22:00 +2°C° 0 mm 5 mps 770 mmHg 61%
    23:00 +2°C° 0 mm 5 mps 770 mmHg 64%

    25 July, Thursday

    Time Temperature Precipitation Wind Pressure Humidity
    00:00 +2°C° 0 mm 5 mps 769 mmHg 65%
    01:00 +2°C° 0 mm 5 mps 769 mmHg 66%
    02:00 +1°C° 0 mm 6 mps 769 mmHg 67%
    03:00 +1°C° 0 mm 6 mps 769 mmHg 68%
    04:00 +1°C° 0 mm 6 mps 768 mmHg 70%
    05:00 +1°C° 0 mm 6 mps 768 mmHg 72%
    06:00 +1°C° 0 mm 6 mps 768 mmHg 71%
    07:00 +1°C° 0 mm 6 mps 768 mmHg 70%
    08:00 +1°C° 0 mm 6 mps 768 mmHg 69%
    09:00 +3°C° 0 mm 7 mps 768 mmHg 61%
    10:00 +5°C° 0 mm 8 mps 768 mmHg 54%
    11:00 +9°C° 0 mm 8 mps 768 mmHg 46%
    12:00 +10°C° 0 mm 8 mps 767 mmHg 42%
    13:00 +11°C° 0 mm 9 mps 766 mmHg 39%
    14:00 +12°C° 0 mm 9 mps 766 mmHg 35%
    15:00 +11°C° 0 mm 8 mps 765 mmHg 37%
    16:00 +11°C° 0 mm 7 mps 765 mmHg 39%
    17:00 +10°C° 0 mm 7 mps 765 mmHg 41%
    18:00 +9°C° 0 mm 7 mps 765 mmHg 44%
    19:00 +8°C° 0 mm 7 mps 765 mmHg 47%
    20:00 +7°C° 0 mm 8 mps 765 mmHg 50%
    21:00 +6°C° 0 mm 8 mps 765 mmHg 53%
    22:00 +6°C° 0 mm 8 mps 765 mmHg 56%
    23:00 +6°C° 0 mm 9 mps 765 mmHg 59%

    26 July, Friday

    Time Temperature Precipitation Wind Pressure Humidity
    00:00 +6°C° 0 mm 9 mps 765 mmHg 60%
    01:00 +5°C° 0 mm 9 mps 765 mmHg 61%
    02:00 +5°C° 0 mm 9 mps 765 mmHg 63%
    03:00 +5°C° 0 mm 8 mps 765 mmHg 65%
    04:00 +4°C° 0 mm 8 mps 765 mmHg 67%
    05:00 +4°C° 0 mm 7 mps 765 mmHg 69%
    06:00 +4°C° 0 mm 7 mps 765 mmHg 70%
    07:00 +3°C° 0 mm 7 mps 765 mmHg 72%
    08:00 +3°C° 0 mm 7 mps 765 mmHg 73%
    09:00 +5°C° 0 mm 7 mps 765 mmHg 66%
    10:00 +6°C° 0 mm 7 mps 765 mmHg 60%
    11:00 +9°C° 0 mm 8 mps 765 mmHg 53%
    12:00 +10°C° 0 mm 7 mps 765 mmHg 51%
    13:00 +10°C° 0 mm 7 mps 765 mmHg 48%
    14:00 +11°C° 0 mm 7 mps 764 mmHg 46%
    15:00 +11°C° 0 mm 6 mps 764 mmHg 47%
    16:00 +10°C° 0 mm 5 mps 765 mmHg 49%
    17:00 +11°C° 0 mm 4 mps 765 mmHg 50%
    18:00 +10°C° 0 mm 4 mps 765 mmHg 52%
    19:00 +10°C° 0 mm 4 mps 765 mmHg 53%
    20:00 +10°C° 0 mm 4 mps 765 mmHg 55%
    21:00 +8°C° 0 mm 4 mps 765 mmHg 56%
    22:00 +8°C° 0 mm 4 mps 766 mmHg 58%
    23:00 +8°C° 0 mm 4 mps 766 mmHg 59%
    Show more